Weather History for Shannon, Ireland

Change the Weather History Date:

Saturday, January 11, 2014

  Actual Average Record
Temperature  
Mean Temperature 38 °F -  
Max Temperature 44 °F 47 °F 55 °F (1997)
Min Temperature 33 °F 37 °F 23 °F (2003)
Degree Days  
Heating Degree Days 26    
Moisture  
Dew Point 36 °F    
Average Humidity 89    
Maximum Humidity 100    
Minimum Humidity 68    
Precipitation  
Precipitation 0.00 in 0.12 in - ()
Sea Level Pressure  
Sea Level Pressure 30.03 in    
Wind  
Wind Speed 8 mph ()    
Max Wind Speed 22 mph    
Max Gust Speed -    
Visibility 8.6 miles    
Events Rain    
Averages and records for this station are not official NWS values.
T = Trace of Precipitation, MM = Missing Value Source: Averaged Metar Reports

Daily Weather History Graph

Daily Weather History Graph

Search for Another Location

Airport:

Trip Planner

Search our weather history database for the weather conditions in past years. The results will help you decide how hot, cold, wet, or windy it might be!

Date:

Astronomy

Jan. 11, 2014 Rise Set
Actual Time 8:43 AM GMT 4:44 PM GMT
Civil Twilight 8:02 AM GMT 5:24 PM GMT
Nautical Twilight 7:19 AM GMT 6:08 PM GMT
Astronomical Twilight 6:37 AM GMT 6:49 PM GMT
Moon 1:26 PM GMT (1/11) 4:26 AM GMT (1/11)
Length of Visible Light 9h 21m
Length of Day
8h 01m
Waxing Gibbous, 81% of the Moon is Illuminated
Jan 11
Waxing Gibbous
Jan 16
Full
Jan 24
Last Quarter
Jan 30
New
Feb 6
First Quarter

Hourly Weather History & Observations

Time (GMT) Temp. Windchill Dew Point Humidity Pressure Visibility Wind Dir Wind Speed Gust Speed Precip Events Conditions
12:00 AM 40 °F - 39 °F 94% 29.92 in 11 mi SSW 8.9 mph - - Rain Light Rain Showers
12:00 AM 39.2 °F 33.6 °F 39.2 °F 100% 29.92 in 6.2 mi SSW 8.1 mph - N/A Rain Light Rain Showers
12:30 AM 39.2 °F 33.6 °F 39.2 °F 100% 29.92 in 6.2 mi SW 8.1 mph - N/A   Mostly Cloudy
1:00 AM 39 °F - 37 °F 92% 29.93 in 12 mi SSW 8.9 mph - - Rain Light Rain Showers
1:00 AM 39.2 °F 33.6 °F 37.4 °F 93% 29.92 in 6.2 mi SSW 8.1 mph - N/A   Partly Cloudy
1:30 AM 39.2 °F 33.6 °F 37.4 °F 93% 29.92 in 6.2 mi SSW 8.1 mph - N/A   Partly Cloudy
2:00 AM 38 °F - 36 °F 89% 29.95 in 12 mi West 6.7 mph - - Rain Light Rain Showers
2:00 AM 37.4 °F 32.8 °F 35.6 °F 93% 29.95 in 6.2 mi West 5.8 mph - N/A   Partly Cloudy
2:30 AM 37.4 °F 30.8 °F 35.6 °F 93% 29.95 in 6.2 mi WSW 9.2 mph - N/A   Partly Cloudy
3:00 AM 38 °F - 36 °F 89% 29.98 in 12 mi SW 8.9 mph - -   Partly Cloudy
3:00 AM 37.4 °F 30.8 °F 35.6 °F 93% 29.98 in 6.2 mi SW 9.2 mph - N/A   Partly Cloudy
3:30 AM 37.4 °F 33.8 °F 35.6 °F 93% 29.98 in 6.2 mi WSW 4.6 mph - N/A   Partly Cloudy
4:00 AM 37 °F - 36 °F 94% 30.00 in 12 mi Calm Calm - -   Scattered Clouds
4:00 AM 37.4 °F - 35.6 °F 93% 29.98 in 6.2 mi Calm Calm - N/A   Partly Cloudy
4:30 AM 35.6 °F - 33.8 °F 93% 30.01 in 6.2 mi Variable 2.3 mph - N/A   Partly Cloudy
5:00 AM 36 °F - 35 °F 94% 30.01 in 12 mi SSW 4.5 mph - -   Scattered Clouds
5:00 AM 35.6 °F 31.7 °F 35.6 °F 100% 30.01 in 6.2 mi SSW 4.6 mph - N/A   Partly Cloudy
5:30 AM 35.6 °F 31.7 °F 33.8 °F 93% 30.01 in 6.2 mi WNW 4.6 mph - N/A   Scattered Clouds
6:00 AM 36 °F - 35 °F 93% 30.04 in 12 mi SW 4.5 mph - -   Partly Cloudy
6:00 AM 35.6 °F 32.8 °F 35.6 °F 100% 30.01 in 6.2 mi Variable 3.5 mph - N/A   Partly Cloudy
6:30 AM 35.6 °F 30.7 °F 35.6 °F 100% 30.04 in 6.2 mi SSE 5.8 mph - N/A   Partly Cloudy
7:00 AM 36 °F - 35 °F 95% 30.06 in 12 mi SSE 4.5 mph - -   Scattered Clouds
7:00 AM 35.6 °F 31.7 °F 35.6 °F 100% 30.04 in 6.2 mi SSE 4.6 mph - N/A   Partly Cloudy
7:30 AM 35.6 °F 31.7 °F 33.8 °F 93% 30.04 in 6.2 mi SE 4.6 mph - N/A   Scattered Clouds
8:00 AM 35 °F - 34 °F 93% 30.07 in 19 mi ESE 8.9 mph - -   Scattered Clouds
8:00 AM 35.6 °F 29.2 °F 33.8 °F 93% 30.06 in 6.2 mi ESE 8.1 mph - N/A   Partly Cloudy
8:30 AM 33.8 °F 27.0 °F 33.8 °F 100% 30.06 in 6.2 mi ESE 8.1 mph - N/A   Partly Cloudy
9:00 AM 34 °F - 33 °F 95% 30.08 in 19 mi ESE 11.2 mph - -   Scattered Clouds
9:00 AM 33.8 °F 25.8 °F 33.8 °F 100% 30.06 in 6.2 mi ESE 10.4 mph - N/A   Scattered Clouds
9:30 AM 33.8 °F 26.4 °F 33.8 °F 100% 30.06 in 6.2 mi ESE 9.2 mph - N/A   Scattered Clouds
10:00 AM 35 °F - 34 °F 95% 30.10 in 25 mi ESE 8.9 mph - -   Scattered Clouds
10:00 AM 35.6 °F 28.6 °F 33.8 °F 93% 30.09 in 6.2 mi ESE 9.2 mph - N/A   Scattered Clouds
10:30 AM 35.6 °F 28.0 °F 33.8 °F 93% 30.09 in 6.2 mi ESE 10.4 mph - N/A   Partly Cloudy
11:00 AM 36 °F - 34 °F 90% 30.12 in 19 mi ESE 11.2 mph - -   Scattered Clouds
11:00 AM 37.4 °F 30.3 °F 33.8 °F 87% 30.09 in 6.2 mi ESE 10.4 mph - N/A   Partly Cloudy
11:30 AM 37.4 °F 30.8 °F 35.6 °F 93% 30.12 in 6.2 mi ESE 9.2 mph - N/A   Scattered Clouds
12:00 PM 39 °F - 36 °F 83% 30.12 in 25 mi ESE 8.9 mph - -   Scattered Clouds
12:00 PM 39.2 °F 33.6 °F 35.6 °F 87% 30.09 in 6.2 mi ESE 8.1 mph - N/A   Scattered Clouds
12:30 PM 39.2 °F 33.0 °F 37.4 °F 93% 30.09 in 6.2 mi ESE 9.2 mph - N/A   Scattered Clouds
1:00 PM 40 °F - 37 °F 86% 30.11 in 25 mi ESE 8.9 mph - -   Scattered Clouds
1:00 PM 39.2 °F 33.0 °F 37.4 °F 93% 30.09 in 6.2 mi ESE 9.2 mph - N/A   Partly Cloudy
1:30 PM 41.0 °F 35.2 °F 37.4 °F 87% 30.09 in 6.2 mi ESE 9.2 mph - N/A   Mostly Cloudy
2:00 PM 42 °F - 38 °F 79% 30.11 in 31 mi ESE 8.9 mph - -   Scattered Clouds
2:00 PM 42.8 °F 38.0 °F 39.2 °F 87% 30.09 in 6.2 mi ESE 8.1 mph - N/A   Mostly Cloudy
2:30 PM 44.6 °F 39.7 °F 37.4 °F 76% 30.09 in 6.2 mi ESE 9.2 mph - N/A   Mostly Cloudy
3:00 PM 44 °F - 37 °F 68% 30.09 in 31 mi SE 11.2 mph - -   Scattered Clouds
3:30 PM 42.8 °F 37.0 °F 35.6 °F 76% 30.06 in - SE 10.4 mph - N/A   Clear
4:00 PM 42 °F - 36 °F 74% 30.09 in 37 mi ESE 8.9 mph - -   Scattered Clouds
4:00 PM 42.8 °F 37.5 °F 37.4 °F 81% 30.06 in 6.2 mi ESE 9.2 mph - N/A   Mostly Cloudy
4:30 PM 41.0 °F 34.3 °F 35.6 °F 81% 30.09 in 6.2 mi SE 11.5 mph - N/A   Mostly Cloudy
5:00 PM 41 °F - 36 °F 75% 30.09 in 31 mi ESE 11.2 mph - -   Scattered Clouds
5:00 PM 41.0 °F 34.3 °F 35.6 °F 81% 30.06 in 6.2 mi ESE 11.5 mph - N/A   Mostly Cloudy
5:30 PM 41.0 °F 34.3 °F 35.6 °F 81% 30.06 in 6.2 mi ESE 11.5 mph - N/A   Mostly Cloudy
6:00 PM 39 °F - 35 °F 82% 30.08 in 19 mi East 11.2 mph - -   Scattered Clouds
6:00 PM 39.2 °F 32.0 °F 35.6 °F 87% 30.06 in 6.2 mi East 11.5 mph - N/A   Scattered Clouds
6:30 PM 39.2 °F 31.2 °F 35.6 °F 87% 30.06 in 6.2 mi East 13.8 mph - N/A   Scattered Clouds
7:00 PM 40 °F - 35 °F 77% 30.05 in 19 mi East 13.4 mph - -   Scattered Clouds
7:00 PM 41.0 °F 33.5 °F 35.6 °F 81% 30.04 in 6.2 mi East 13.8 mph - N/A   Scattered Clouds
7:30 PM 39.2 °F 30.5 °F 33.8 °F 81% 30.04 in 6.2 mi East 16.1 mph - N/A   Scattered Clouds
8:00 PM 38 °F - 35 °F 82% 30.03 in 19 mi East 17.9 mph - -   Scattered Clouds
8:00 PM 39.2 °F 30.2 °F 33.8 °F 81% 30.01 in 6.2 mi East 17.3 mph - N/A   Scattered Clouds
8:30 PM 39.2 °F 30.5 °F 35.6 °F 87% 30.01 in - East 16.1 mph - N/A   Clear
9:00 PM 39 °F - 35 °F 82% 29.99 in 16 mi East 15.7 mph - -   Clear
9:00 PM 39.2 °F 30.5 °F 35.6 °F 87% 29.98 in - East 16.1 mph - N/A   Clear
9:30 PM 39.2 °F 31.2 °F 35.6 °F 87% 29.98 in 6.2 mi ESE 13.8 mph - N/A   Mostly Cloudy
10:00 PM 40 °F - 36 °F 82% 29.99 in 16 mi East 13.4 mph - -   Mostly Cloudy
10:00 PM 39.2 °F 31.6 °F 35.6 °F 87% 29.98 in 6.2 mi East 12.7 mph - N/A   Mostly Cloudy
10:30 PM 42.8 °F 35.4 °F 39.2 °F 87% 29.95 in 6.2 mi East 15.0 mph - N/A   Mostly Cloudy
11:00 PM 44 °F - 40 °F 82% 29.94 in 10 mi ESE 17.9 mph - - Rain Light Rain
11:00 PM 44.6 °F 37.2 °F 41.0 °F 87% 29.92 in 6.2 mi ESE 17.3 mph - N/A Rain Light Rain
11:30 PM 44.6 °F 36.1 °F 41.0 °F 87% 29.92 in 6.2 mi ESE 21.9 mph - N/A Rain Light Rain